Orbital Elements at Epoch 2459200.5 (2020-Dec-17.0) TDB
Reference: JPL 24 (heliocentric ecliptic J2000)
Element | Value | Uncertainty (1-sigma) | Units |
e | .1144681391422502 | 5.1236e-08 | |
a | 2.592163825306278 | 1.4397e-08 | au |
q | 2.295443655871612 | 1.2765e-07 | au |
i | 13.44725620505353 | 4.5844e-06 | deg |
node | 77.85321302037057 | 1.9161e-05 | deg |
peri | 143.8305592379496 | 2.6301e-05 | deg |
M | 140.0570185698122 | 1.7244e-05 | deg |
tp | 2458607.445682960084 (2019-May-03.94568296) | 7.2197e-05 | TDB |
period | 1524.37597426044 4.17 | 1.2699e-05 3.477e-08 | d yr |
n | .2361622106873314 | 1.9674e-09 | deg/d |
Q | 2.888883994740945 | 1.6044e-08 | au |
|
| | Orbit Determination Parameters
Additional Information
|